Location: Newark
(40.3500°N, 15.2333°E)
Time: 00:05:11
(UTC+00:00)

N. Korean satellite - Visible Passes

Search period start: 28 January 2021 00:00
Search period end: 07 February 2021 00:00
Orbit: 452 x 502 km, 97.2° (Epoch: 27 January)

Date Brightness Start Highest point End Pass type
(mag) Time Alt. Az. Time Alt. Az. Time Alt. Az.
28 Jan 9.7 03:28:36 10° ENE 03:30:16 13° E 03:31:56 10° ESE visible
28 Jan 7.2 05:00:38 10° N 05:03:42 31° WNW 05:06:43 10° SW visible
29 Jan 6.2 04:33:45 10° N 04:37:11 74° WNW 04:40:34 10° SSW visible
29 Jan 10.0 16:42:49 10° SW 16:44:44 14° W 16:46:39 10° WNW visible
30 Jan 7.6 04:07:15 10° NNE 04:10:34 43° E 04:13:48 10° S visible
30 Jan 8.5 05:43:09 10° WNW 05:43:26 10° WNW 05:43:43 10° WNW visible
31 Jan 9.2 03:41:17 10° NE 03:43:49 19° E 03:46:21 10° SE visible
31 Jan 7.7 05:14:26 10° NNW 05:17:04 21° WNW 05:19:40 10° WSW visible
01 Feb 6.6 04:47:18 10° N 04:50:35 46° WNW 04:53:50 10° SSW visible
02 Feb 6.6 04:20:35 10° NNE 04:24:00 70° E 04:27:22 10° S visible
03 Feb 8.5 03:54:18 10° NE 03:57:19 28° E 04:00:18 10° SSE visible
03 Feb 8.1 05:28:26 10° NNW 05:30:21 14° WNW 05:32:17 10° WSW visible
04 Feb 9.7 03:28:48 10° ENE 03:30:30 13° E 03:32:13 10° ESE visible
04 Feb 7.2 05:00:54 10° N 05:03:55 30° WNW 05:06:55 10° SW visible
05 Feb 6.2 04:33:57 10° N 04:37:22 73° WNW 04:40:45 10° SSW visible
06 Feb 7.6 04:07:25 10° NNE 04:10:43 44° E 04:13:58 10° S visible
